Annapolis Naval Academy, MD

11:33 AM EST on December 09, 2019 (GMT -0500)
Annapolis Naval Academy

Weather History for KNAK - November, 2019

Change the Weather History Date:

Monday, November 18, 2019

  Actual Average (KBWI) Record (KBWI)
Temperature  
Mean Temperature 46 °F -  
Max Temperature 50 °F 56 °F 78 °F (1938)
Min Temperature 41 °F 35 °F 20 °F (1959)
Degree Days  
Heating Degree Days 20    
Moisture  
Dew Point 37 °F    
Average Humidity 79    
Maximum Humidity 92    
Minimum Humidity 66    
Precipitation  
Precipitation 0.10 in - - ()
Sea Level Pressure  
Sea Level Pressure 29.83 in    
Wind  
Wind Speed 6 mph ()    
Max Wind Speed 9 mph    
Max Gust Speed -    
Visibility 9.0 miles    
Events Rain    
Averages and records for this station are not official NWS values.
T = Trace of Precipitation, MM = Missing Value Source: Averaged Metar Reports

Daily Weather History Graph

Daily Weather History Graph

Search for Another Location

Airport or City:

Astronomy

Nov. 18, 2019 Rise Set
Actual Time 6:51 AM EST 4:49 PM EST
Civil Twilight 6:23 AM EST 5:18 PM EST
Nautical Twilight 5:50 AM EST 5:51 PM EST
Astronomical Twilight 5:18 AM EST 6:22 PM EST
Moon 10:32 PM EST (11/18) 12:21 PM EST (11/18)
Length of Visible Light 10h 55m
Length of Day
9h 58m
Waning Gibbous, 63% of the Moon is Illuminated
Nov 18
Waning Gibbous
Nov 19
Last Quarter
Nov 26
New
Dec 4
First Quarter
Dec 12
Full

Hourly Weather History & Observations

Time (EST) Temp. Windchill Dew Point Humidity Pressure Visibility Wind Dir Wind Speed Gust Speed Precip Events Conditions
12:54 AM 42.1 °F 36.6 °F 36.0 °F 79% 29.97 in 10.0 mi North 9.2 mph - N/A   Overcast
2:54 AM 42.1 °F 37.7 °F 36.0 °F 79% 29.93 in 10.0 mi North 6.9 mph - N/A   Overcast
3:54 AM 41.0 °F 37.1 °F 35.1 °F 79% 29.92 in 10.0 mi NNW 5.8 mph - N/A   Overcast
4:54 AM 41.0 °F 36.4 °F 34.0 °F 76% 29.90 in 10.0 mi NNW 6.9 mph - N/A   Overcast
5:44 AM 41.0 °F 36.4 °F 34.0 °F 76% 29.90 in 10.0 mi North 6.9 mph - N/A   Overcast
5:54 AM 41.0 °F 35.8 °F 35.1 °F 79% 29.90 in 10.0 mi North 8.1 mph - N/A   Overcast
6:54 AM 41.0 °F 35.8 °F 34.0 °F 76% 29.90 in 10.0 mi North 8.1 mph - N/A   Overcast
7:39 AM 41.0 °F 35.8 °F 34.0 °F 76% 29.90 in 10.0 mi North 8.1 mph - N/A   Overcast
7:54 AM 41.0 °F 35.8 °F 34.0 °F 76% 29.90 in 10.0 mi North 8.1 mph - N/A   Overcast
8:54 AM 42.1 °F 38.4 °F 35.1 °F 76% 29.90 in 10.0 mi North 5.8 mph - N/A   Overcast
9:31 AM 42.1 °F 37.1 °F 35.1 °F 76% 29.88 in 10.0 mi NNW 8.1 mph - N/A   Overcast
9:54 AM 42.1 °F 37.7 °F 36.0 °F 79% 29.89 in 10.0 mi North 6.9 mph - N/A   Overcast
10:54 AM 44.1 °F 40.8 °F 37.0 °F 76% 29.86 in 10.0 mi North 5.8 mph - N/A   Overcast
11:54 AM 45.0 °F 40.6 °F 37.9 °F 76% 29.82 in 10.0 mi NNW 8.1 mph - N/A   Overcast
12:54 PM 46.9 °F - 37.9 °F 71% 29.80 in 10.0 mi Calm Calm - N/A   Overcast
1:33 PM 50.0 °F - 39.0 °F 66% 29.77 in 10.0 mi NNW 3.5 mph - N/A   Scattered Clouds
1:54 PM 48.0 °F - 37.9 °F 68% 29.77 in 10.0 mi NNW 3.5 mph - N/A   Partly Cloudy
2:54 PM 46.9 °F - 41.0 °F 80% 29.75 in 10.0 mi SE 9.2 mph - N/A   Clear
3:54 PM 46.9 °F - 39.9 °F 77% 29.74 in 10.0 mi SSE 5.8 mph - N/A   Clear
4:54 PM 45.0 °F 43.5 °F 39.0 °F 80% 29.76 in 10.0 mi South 3.5 mph - N/A   Mostly Cloudy
5:54 PM 46.0 °F 43.9 °F 39.0 °F 76% 29.77 in 10.0 mi SW 4.6 mph - N/A   Overcast
6:54 PM 45.0 °F 43.5 °F 39.0 °F 80% 29.78 in 10.0 mi WSW 3.5 mph - N/A   Partly Cloudy
7:54 PM 45.0 °F - 37.9 °F 76% 29.77 in 10.0 mi Calm Calm - N/A   Mostly Cloudy
8:54 PM 43.0 °F 39.5 °F 39.0 °F 86% 29.76 in 6.0 mi WNW 5.8 mph - 0.00 in Rain Light Rain
9:54 PM 42.1 °F 39.2 °F 39.9 °F 92% 29.77 in 4.0 mi South 4.6 mph - 0.02 in Rain Light Rain
10:54 PM 42.1 °F 40.2 °F 39.9 °F 92% 29.77 in 4.0 mi SSW 3.5 mph - 0.03 in Rain Light Rain
11:12 PM 42.1 °F 40.2 °F 39.9 °F 92% 29.76 in 4.0 mi SSW 3.5 mph - 0.01 in Rain Light Rain
11:54 PM 42.1 °F - 39.9 °F 92% 29.77 in 3.0 mi Calm Calm - 0.05 in Rain Light Rain